�������l�o���
Date,Time,MP-1(��Sv/h),MP-2(��Sv/h),MP-3(��Sv/h),MP-4(��Sv/h),MP-5(��Sv/h),MP-6(��Sv/h),MP-7(��Sv/h),MP-8(��Sv/h),����,����(m/s),���J
2022/05/15,00:00,0.561,0.832,0.539,1.014,0.716,0.345,0.590,0.559,�k�k��,3.2,��
2022/05/15,00:10,0.560,0.834,0.540,1.014,0.715,0.346,0.592,0.562,�k�k��,3.3,��
2022/05/15,00:20,0.561,0.836,0.539,1.017,0.719,0.345,0.591,0.560,�k�k��,3.4,��
2022/05/15,00:30,0.563,0.833,0.539,1.015,0.716,0.345,0.592,0.559,�k�k��,1.7,��
2022/05/15,00:40,0.563,0.834,0.538,1.015,0.716,0.345,0.592,0.560,�k,1.5,�L
2022/05/15,00:50,0.563,0.834,0.539,1.016,0.716,0.344,0.592,0.559,�k�k��,2.2,��
2022/05/15,01:00,0.562,0.831,0.539,1.018,0.716,0.343,0.592,0.560,�k,2.0,�L
2022/05/15,01:10,0.563,0.833,0.540,1.016,0.717,0.345,0.593,0.560,�k�k��,1.4,�L
2022/05/15,01:20,0.563,0.833,0.538,1.016,0.717,0.345,0.593,0.560,�k,1.2,�L
2022/05/15,01:30,0.563,0.833,0.540,1.017,0.718,0.345,0.593,0.561,�k�k��,1.7,�L
2022/05/15,01:40,0.562,0.834,0.538,1.013,0.718,0.343,0.594,0.561,��,2.0,��
2022/05/15,01:50,0.563,0.833,0.541,1.014,0.717,0.344,0.595,0.561,��,2.2,��
2022/05/15,02:00,0.564,0.830,0.540,1.016,0.717,0.345,0.593,0.561,��,1.7,��
2022/05/15,02:10,0.562,0.834,0.539,1.015,0.717,0.345,0.592,0.559,�쓌,1.2,��
2022/05/15,02:20,0.562,0.833,0.540,1.016,0.717,0.344,0.591,0.561,���쓌,1.5,��
2022/05/15,02:30,0.562,0.832,0.539,1.016,0.719,0.344,0.593,0.560,���쓌,1.2,��
2022/05/15,02:40,0.561,0.834,0.538,1.018,0.720,0.345,0.591,0.560,��,2.3,��
2022/05/15,02:50,0.561,0.834,0.541,1.016,0.717,0.345,0.593,0.560,���k��,1.7,��
2022/05/15,03:00,0.563,0.832,0.539,1.016,0.718,0.345,0.592,0.560,�k��,1.4,��
2022/05/15,03:10,0.561,0.832,0.538,1.015,0.717,0.345,0.593,0.559,���쓌,2.0,��
2022/05/15,03:20,0.563,0.834,0.538,1.014,0.716,0.344,0.593,0.560,��,3.2,��
2022/05/15,03:30,0.562,0.834,0.538,1.018,0.715,0.344,0.593,0.559,�쓌,2.5,��
2022/05/15,03:40,0.563,0.833,0.540,1.014,0.715,0.345,0.592,0.560,���k��,0.8,�L
2022/05/15,03:50,0.559,0.834,0.538,1.016,0.718,0.344,0.593,0.560,���쓌,2.9,��
2022/05/15,04:00,0.561,0.834,0.538,1.016,0.719,0.343,0.592,0.561,�쓌,2.8,��
2022/05/15,04:10,0.563,0.834,0.538,1.015,0.717,0.345,0.592,0.559,�쓌,1.9,��
2022/05/15,04:20,0.561,0.833,0.539,1.016,0.715,0.345,0.593,0.561,�쓌,1.5,��
2022/05/15,04:30,0.563,0.834,0.539,1.016,0.715,0.343,0.592,0.561,���쓌,1.7,��
2022/05/15,04:40,0.561,0.834,0.539,1.016,0.716,0.343,0.594,0.560,�쓌,1.7,��
2022/05/15,04:50,0.563,0.835,0.539,1.017,0.715,0.343,0.592,0.558,���쓌,2.0,��
2022/05/15,05:00,0.562,0.835,0.540,1.016,0.715,0.345,0.591,0.560,��쓌,0.9,��
2022/05/15,05:10,0.562,0.836,0.538,1.016,0.716,0.344,0.592,0.561,�쓌,1.4,��
2022/05/15,05:20,0.561,0.836,0.538,1.017,0.715,0.343,0.592,0.560,��쓌,1.5,��
2022/05/15,05:30,0.562,0.835,0.537,1.016,0.719,0.345,0.593,0.560,�쓌,1.7,��
2022/05/15,05:40,0.563,0.835,0.539,1.015,0.716,0.343,0.594,0.560,��쓌,2.2,��
2022/05/15,05:50,0.561,0.837,0.538,1.015,0.716,0.343,0.593,0.560,��쓌,2.3,��
2022/05/15,06:00,0.561,0.835,0.539,1.016,0.718,0.344,0.595,0.561,��쓌,1.7,��
2022/05/15,06:10,0.562,0.836,0.538,1.016,0.718,0.344,0.594,0.561,�쓌,1.9,��
2022/05/15,06:20,0.562,0.836,0.539,1.016,0.718,0.345,0.593,0.559,�쓌,1.2,��
2022/05/15,06:30,0.561,0.836,0.539,1.016,0.718,0.345,0.592,0.562,���k��,1.2,��
2022/05/15,06:40,0.561,0.835,0.539,1.017,0.718,0.344,0.592,0.559,-,CALM,��
2022/05/15,06:50,0.562,0.834,0.537,1.015,0.717,0.344,0.593,0.560,��,1.2,��
2022/05/15,07:00,0.563,0.836,0.539,1.017,0.718,0.345,0.593,0.561,�쐼,0.9,��
2022/05/15,07:10,0.562,0.836,0.539,1.015,0.719,0.342,0.593,0.560,���쐼,1.4,��
2022/05/15,07:20,0.563,0.836,0.540,1.018,0.718,0.344,0.592,0.560,���k��,1.7,��
2022/05/15,07:30,0.562,0.836,0.539,1.017,0.719,0.343,0.591,0.559,��,2.0,��
2022/05/15,07:40,0.562,0.836,0.540,1.019,0.717,0.344,0.592,0.561,��,1.2,��
2022/05/15,07:50,0.562,0.835,0.540,1.018,0.718,0.343,0.591,0.560,��,1.9,��
2022/05/15,08:00,0.562,0.838,0.540,1.015,0.718,0.344,0.591,0.560,���쐼,2.0,��
2022/05/15,08:10,0.562,0.837,0.541,1.019,0.717,0.343,0.592,0.559,�쐼,1.5,��
2022/05/15,08:20,0.564,0.837,0.541,1.019,0.715,0.343,0.593,0.559,���k��,1.2,��
2022/05/15,08:30,0.563,0.836,0.540,1.019,0.717,0.343,0.591,0.560,���쐼,1.4,��
2022/05/15,08:40,0.563,0.836,0.541,1.016,0.719,0.342,0.592,0.559,���쐼,1.2,��
2022/05/15,08:50,0.562,0.835,0.541,1.019,0.719,0.344,0.591,0.559,��쐼,0.9,��
2022/05/15,09:00,0.561,0.834,0.539,1.017,0.720,0.343,0.592,0.558,��쐼,1.2,��
2022/05/15,09:10,0.563,0.836,0.542,1.015,0.719,0.345,0.592,0.560,��쓌,1.1,��
2022/05/15,09:20,0.561,0.836,0.540,1.016,0.717,0.344,0.593,0.559,��쓌,2.6,��
2022/05/15,09:30,0.562,0.835,0.540,1.018,0.720,0.343,0.592,0.560,��쓌,2.3,��
2022/05/15,09:40,0.558,0.834,0.539,1.019,0.720,0.344,0.591,0.559,�쓌,2.5,��
2022/05/15,09:50,0.561,0.834,0.540,1.022,0.718,0.342,0.594,0.559,�쓌,2.9,��
2022/05/15,10:00,0.561,0.835,0.540,1.018,0.718,0.342,0.593,0.559,�쓌,3.1,��
2022/05/15,10:10,0.562,0.834,0.538,1.019,0.718,0.343,0.593,0.556,�쓌,3.2,��
2022/05/15,10:20,0.561,0.833,0.537,1.018,0.717,0.343,0.595,0.558,���쓌,2.6,��
2022/05/15,10:30,0.562,0.836,0.538,1.020,0.718,0.343,0.595,0.558,�쓌,3.0,��
2022/05/15,10:40,0.562,0.837,0.538,1.020,0.720,0.343,0.593,0.556,��쓌,2.6,��
2022/05/15,10:50,0.564,0.835,0.538,1.018,0.718,0.345,0.593,0.559,�쓌,3.0,��
2022/05/15,11:00,0.563,0.835,0.538,1.019,0.721,0.342,0.594,0.558,��쓌,2.6,��
2022/05/15,11:10,0.562,0.836,0.541,1.021,0.721,0.342,0.592,0.558,�쓌,3.4,��
2022/05/15,11:20,0.563,0.838,0.539,1.020,0.721,0.343,0.594,0.557,�쓌,4.2,��
2022/05/15,11:30,0.563,0.837,0.538,1.019,0.721,0.343,0.594,0.559,��쓌,3.7,��
2022/05/15,11:40,0.564,0.836,0.538,1.017,0.722,0.343,0.594,0.559,��쓌,3.9,��
2022/05/15,11:50,0.563,0.840,0.539,1.018,0.720,0.345,0.595,0.558,�쓌,3.9,��
2022/05/15,12:00,0.565,0.837,0.540,1.019,0.722,0.345,0.595,0.559,��쓌,3.8,��
2022/05/15,12:10,0.563,0.838,0.539,1.020,0.721,0.343,0.597,0.558,�쓌,4.5,��
2022/05/15,12:20,0.565,0.839,0.541,1.018,0.721,0.344,0.596,0.559,�쓌,5.1,��
2022/05/15,12:30,0.565,0.839,0.541,1.017,0.723,0.344,0.597,0.559,�쓌,4.7,��
2022/05/15,12:40,0.564,0.840,0.540,1.018,0.723,0.345,0.597,0.559,�쓌,4.4,��
2022/05/15,12:50,0.566,0.839,0.540,1.019,0.725,0.345,0.598,0.558,�쓌,3.7,��
2022/05/15,13:00,0.564,0.840,0.539,1.021,0.722,0.344,0.597,0.559,�쓌,4.5,��
2022/05/15,13:10,0.565,0.838,0.542,1.022,0.724,0.345,0.596,0.560,�쓌,4.1,��
2022/05/15,13:20,0.564,0.841,0.541,1.023,0.723,0.345,0.597,0.561,���쓌,4.4,��
2022/05/15,13:30,0.565,0.840,0.540,1.018,0.723,0.345,0.597,0.559,�쓌,4.1,��
2022/05/15,13:40,0.565,0.841,0.542,1.017,0.726,0.344,0.597,0.561,�쓌,4.4,��
2022/05/15,13:50,0.565,0.841,0.541,1.022,0.725,0.345,0.597,0.560,�쓌,4.2,��
2022/05/15,14:00,0.565,0.841,0.542,1.019,0.724,0.346,0.597,0.561,�쓌,5.0,��
2022/05/15,14:10,0.566,0.842,0.543,1.021,0.725,0.345,0.598,0.561,�쓌,4.3,��
2022/05/15,14:20,0.565,0.841,0.541,1.022,0.727,0.345,0.597,0.561,��쓌,5.3,��
2022/05/15,14:30,0.567,0.842,0.542,1.025,0.726,0.346,0.597,0.560,��쓌,2.2,��
2022/05/15,14:40,0.565,0.842,0.541,1.022,0.726,0.346,0.597,0.559,��쓌,4.7,��
2022/05/15,14:50,0.566,0.842,0.543,1.023,0.725,0.345,0.598,0.562,��쓌,4.8,��
2022/05/15,15:00,0.568,0.843,0.543,1.023,0.727,0.345,0.597,0.562,��쓌,5.2,��
2022/05/15,15:10,0.566,0.842,0.542,1.023,0.726,0.344,0.598,0.561,��쓌,5.8,��
2022/05/15,15:20,0.564,0.842,0.541,1.024,0.727,0.345,0.596,0.560,�쓌,4.2,��
2022/05/15,15:30,0.564,0.843,0.542,1.021,0.727,0.346,0.596,0.560,��쓌,4.1,��
2022/05/15,15:40,0.568,0.844,0.542,1.024,0.726,0.344,0.595,0.561,�쓌,5.4,��
2022/05/15,15:50,0.567,0.843,0.543,1.023,0.728,0.345,0.596,0.560,��쓌,4.7,��
2022/05/15,16:00,0.567,0.844,0.541,1.023,0.730,0.345,0.597,0.561,�쓌,4.1,��
2022/05/15,16:10,0.566,0.844,0.543,1.023,0.727,0.345,0.596,0.560,�쓌,3.4,��
2022/05/15,16:20,0.567,0.844,0.543,1.024,0.728,0.345,0.596,0.561,�쓌,3.6,��
2022/05/15,16:30,0.565,0.843,0.542,1.023,0.728,0.347,0.596,0.560,��쓌,3.8,��
2022/05/15,16:40,0.567,0.842,0.543,1.024,0.727,0.346,0.596,0.560,��쓌,2.5,��
2022/05/15,16:50,0.566,0.843,0.544,1.025,0.728,0.345,0.595,0.559,��쓌,3.2,��
2022/05/15,17:00,0.566,0.843,0.542,1.025,0.728,0.345,0.595,0.559,��쓌,2.0,��
2022/05/15,17:10,0.565,0.842,0.542,1.023,0.728,0.344,0.594,0.560,��쓌,3.8,��
2022/05/15,17:20,0.564,0.843,0.543,1.024,0.727,0.345,0.594,0.561,��,2.0,��
2022/05/15,17:30,0.566,0.843,0.542,1.025,0.728,0.344,0.596,0.560,��,4.2,��
2022/05/15,17:40,0.566,0.844,0.541,1.027,0.728,0.346,0.596,0.559,��,4.8,��
2022/05/15,17:50,0.566,0.843,0.541,1.025,0.729,0.345,0.595,0.561,��,4.3,��
2022/05/15,18:00,0.566,0.845,0.540,1.027,0.728,0.345,0.595,0.561,��쓌,4.2,��
2022/05/15,18:10,0.566,0.846,0.543,1.027,0.729,0.344,0.594,0.560,��쓌,4.4,��
2022/05/15,18:20,0.568,0.847,0.542,1.027,0.725,0.346,0.596,0.561,��쓌,5.3,��
2022/05/15,18:30,0.567,0.847,0.544,1.026,0.727,0.347,0.596,0.562,��쓌,4.8,��
2022/05/15,18:40,0.566,0.847,0.543,1.024,0.727,0.346,0.596,0.562,��쓌,4.9,��
2022/05/15,18:50,0.568,0.848,0.546,1.027,0.728,0.345,0.597,0.563,��쓌,2.9,��
2022/05/15,19:00,0.569,0.847,0.546,1.028,0.728,0.347,0.596,0.562,��쓌,4.3,��
2022/05/15,19:10,0.568,0.847,0.545,1.028,0.729,0.346,0.598,0.562,��,4.8,��
2022/05/15,19:20,0.569,0.846,0.544,1.030,0.729,0.345,0.598,0.562,��,4.8,��
2022/05/15,19:30,0.570,0.847,0.546,1.028,0.728,0.349,0.599,0.562,��쐼,3.5,��
2022/05/15,19:40,0.567,0.846,0.544,1.026,0.731,0.346,0.599,0.563,�쐼,2.0,��
2022/05/15,19:50,0.567,0.848,0.545,1.028,0.730,0.347,0.599,0.562,�쐼,1.5,��
2022/05/15,20:00,0.567,0.849,0.544,1.027,0.730,0.347,0.598,0.563,���쐼,1.1,��
2022/05/15,20:10,0.568,0.848,0.543,1.027,0.729,0.347,0.600,0.561,���k��,1.9,��
2022/05/15,20:20,0.569,0.847,0.544,1.028,0.731,0.347,0.598,0.562,�k��,2.5,��
2022/05/15,20:30,0.568,0.849,0.545,1.029,0.731,0.348,0.599,0.563,�k��,2.3,��
2022/05/15,20:40,0.569,0.846,0.544,1.027,0.731,0.346,0.599,0.563,���k��,1.9,��
2022/05/15,20:50,0.569,0.848,0.544,1.028,0.730,0.347,0.600,0.562,�k��,2.2,��
2022/05/15,21:00,0.569,0.848,0.543,1.027,0.731,0.347,0.599,0.562,�k��,1.7,��
2022/05/15,21:10,0.569,0.849,0.545,1.028,0.731,0.346,0.600,0.564,�k��,3.0,��
2022/05/15,21:20,0.567,0.845,0.545,1.029,0.731,0.348,0.600,0.562,�k��,3.6,��
2022/05/15,21:30,0.568,0.848,0.543,1.028,0.732,0.348,0.600,0.563,�k��,3.6,��
2022/05/15,21:40,0.567,0.848,0.544,1.027,0.731,0.346,0.600,0.562,�k��,3.8,��
2022/05/15,21:50,0.569,0.846,0.544,1.030,0.731,0.347,0.599,0.563,�k��,3.9,��
2022/05/15,22:00,0.570,0.845,0.544,1.029,0.731,0.347,0.600,0.563,�k��,3.5,��
2022/05/15,22:10,0.568,0.845,0.545,1.028,0.731,0.346,0.600,0.563,�k��,2.8,��
2022/05/15,22:20,0.568,0.847,0.545,1.029,0.733,0.346,0.600,0.564,�k��,2.6,��
2022/05/15,22:30,0.570,0.845,0.546,1.029,0.731,0.347,0.600,0.562,�k��,3.1,��
2022/05/15,22:40,0.567,0.846,0.543,1.026,0.731,0.347,0.599,0.563,�k��,3.5,��
2022/05/15,22:50,0.567,0.846,0.544,1.028,0.731,0.346,0.599,0.563,�k��,3.0,��
2022/05/15,23:00,0.568,0.848,0.545,1.029,0.729,0.347,0.599,0.561,�k��,2.5,��
2022/05/15,23:10,0.566,0.846,0.544,1.029,0.730,0.347,0.599,0.563,���k��,2.0,��
2022/05/15,23:20,0.566,0.847,0.545,1.028,0.731,0.348,0.599,0.563,�k��,2.0,��
2022/05/15,23:30,0.569,0.846,0.544,1.028,0.729,0.348,0.601,0.563,�k��,1.9,��
2022/05/15,23:40,0.567,0.847,0.544,1.029,0.729,0.347,0.599,0.562,�k�k��,2.3,��
2022/05/15,23:50,0.567,0.847,0.545,1.030,0.729,0.346,0.599,0.562,�k�k��,1.7,��
